EJA157 KCPS-KGPH

Flight info

Callsign EJA157
Flight time 0h 46m
Altitude 36000
Route OZARK8 HLV BQS BQS8
Aircraft C25C/M-L/C

Departure

Time 2026-04-19 05:47
Airport St Louis Downtown Airport (KCPS)

Arrival

Time 2026-04-19 06:33
Airport Midwest National Air Center Airport (KGPH)
Time Latitude Longitude Altitude Speed Heading
2026-04-19 05:36 38.57662 -90.15989 414 ft 0 kts 281°
2026-04-19 05:40 38.57664 -90.15971 414 ft 2 kts 227°
2026-04-19 05:40 38.57680 -90.15964 413 ft 2 kts 165°
2026-04-19 05:41 38.57682 -90.15965 412 ft 0 kts 155°
2026-04-19 05:43 38.57678 -90.15962 413 ft 6 kts 155°
2026-04-19 05:43 38.57589 -90.15832 416 ft 27 kts 127°
2026-04-19 05:43 38.57477 -90.15647 415 ft 26 kts 122°
2026-04-19 05:43 38.57387 -90.15464 413 ft 24 kts 121°
2026-04-19 05:44 38.57301 -90.15288 410 ft 15 kts 123°
2026-04-19 05:44 38.57247 -90.15192 411 ft 7 kts 109°
2026-04-19 05:44 38.57251 -90.15162 411 ft 2 kts 341°
2026-04-19 05:44 38.57278 -90.15221 411 ft 12 kts 304°
2026-04-19 05:45 38.57322 -90.15306 411 ft 12 kts 299°
2026-04-19 05:45 38.57363 -90.15409 412 ft 18 kts 297°
2026-04-19 05:45 38.57390 -90.15531 414 ft 13 kts 236°
2026-04-19 05:45 38.57358 -90.15567 412 ft 0 kts 239°
2026-04-19 05:46 38.57320 -90.15576 410 ft 9 kts 143°
2026-04-19 05:46 38.57313 -90.15564 411 ft 3 kts 139°
2026-04-19 05:46 38.57277 -90.15603 413 ft 8 kts 169°
2026-04-19 05:46 38.57166 -90.15390 412 ft 71 kts 122°
2026-04-19 05:47 38.56726 -90.14504 575 ft 151 kts 123°
2026-04-19 05:47 38.56115 -90.13251 1553 ft 181 kts 122°
2026-04-19 05:47 38.55571 -90.11666 2482 ft 216 kts 97°
2026-04-19 05:47 38.55529 -90.09661 3440 ft 236 kts 84°
2026-04-19 05:48 38.56233 -90.07667 4395 ft 262 kts 42°
2026-04-19 05:48 38.57825 -90.06567 5374 ft 262 kts
2026-04-19 05:48 38.59568 -90.06871 6337 ft 258 kts 329°
2026-04-19 05:48 38.60843 -90.08403 7302 ft 244 kts 300°
2026-04-19 05:49 38.61689 -90.10247 8257 ft 238 kts 298°
2026-04-19 05:49 38.62609 -90.12012 9230 ft 239 kts 303°
2026-04-19 05:49 38.63651 -90.13662 10210 ft 248 kts 307°
2026-04-19 05:49 38.64843 -90.15444 11147 ft 277 kts 307°
2026-04-19 05:50 38.66148 -90.17427 12113 ft 302 kts 306°
2026-04-19 05:50 38.67515 -90.19547 13105 ft 321 kts 306°
2026-04-19 05:50 38.68962 -90.21770 14131 ft 324 kts 306°
2026-04-19 05:50 38.70405 -90.23989 15057 ft 322 kts 305°
2026-04-19 05:51 38.71821 -90.26169 15989 ft 320 kts 304°
2026-04-19 05:51 38.73247 -90.28370 16965 ft 318 kts 304°
2026-04-19 05:51 38.74657 -90.30551 17970 ft 316 kts 304°
2026-04-19 05:51 38.76044 -90.32691 18921 ft 314 kts 303°
2026-04-19 05:52 38.77441 -90.34857 19818 ft 313 kts 302°
2026-04-19 05:52 38.78817 -90.36980 20721 ft 312 kts 301°
2026-04-19 05:52 38.80213 -90.39151 21683 ft 317 kts 301°
2026-04-19 05:52 38.81618 -90.41327 22659 ft 321 kts 300°
2026-04-19 05:53 38.83058 -90.43558 23679 ft 324 kts 299°
2026-04-19 05:53 38.84480 -90.45774 24538 ft 323 kts 297°
2026-04-19 05:53 38.85643 -90.48186 25427 ft 310 kts 287°
2026-04-19 05:53 38.86424 -90.50691 26315 ft 300 kts 278°
2026-04-19 05:54 38.86881 -90.53271 27248 ft 293 kts 274°
2026-04-19 05:54 38.87295 -90.55823 28192 ft 289 kts 274°
2026-04-19 05:54 38.87698 -90.58331 29199 ft 284 kts 274°
2026-04-19 05:54 38.88092 -90.60789 30220 ft 277 kts 273°
2026-04-19 05:55 38.88471 -90.63159 31089 ft 271 kts 273°
2026-04-19 05:55 38.88847 -90.65515 31988 ft 263 kts 273°
2026-04-19 05:55 38.89208 -90.67766 32914 ft 255 kts 273°
2026-04-19 05:55 38.89558 -90.69967 33865 ft 247 kts 274°
2026-04-19 05:56 38.89891 -90.72062 34719 ft 237 kts 274°
2026-04-19 05:56 38.90215 -90.74096 35540 ft 227 kts 274°
2026-04-19 05:56 38.90525 -90.76054 36209 ft 224 kts 274°
2026-04-19 05:56 38.90835 -90.78076 36247 ft 242 kts 274°
2026-04-19 05:57 38.91180 -90.80284 36248 ft 260 kts 275°
2026-04-19 05:57 38.91557 -90.82645 36256 ft 276 kts 275°
2026-04-19 05:57 38.91947 -90.85105 36266 ft 292 kts 275°
2026-04-19 05:57 38.92360 -90.87723 36261 ft 305 kts 276°
2026-04-19 05:58 38.92793 -90.90466 36263 ft 317 kts 276°
2026-04-19 05:58 38.93233 -90.93265 36262 ft 328 kts 276°
2026-04-19 05:58 38.93692 -90.96190 36268 ft 337 kts 276°
2026-04-19 05:59 38.94634 -91.02191 36262 ft 345 kts 276°
2026-04-19 05:59 38.95577 -91.08239 36258 ft 347 kts 276°
2026-04-19 06:00 38.96526 -91.14343 36262 ft 347 kts 276°
2026-04-19 06:00 38.97462 -91.20398 36259 ft 348 kts 276°
2026-04-19 06:01 38.98403 -91.26488 36261 ft 348 kts 276°
2026-04-19 06:01 38.99345 -91.32619 36260 ft 348 kts 276°
2026-04-19 06:02 39.00278 -91.38707 36262 ft 348 kts 276°
2026-04-19 06:02 39.01209 -91.44807 36266 ft 349 kts 276°
2026-04-19 06:03 39.02144 -91.50957 36272 ft 349 kts 276°
2026-04-19 06:03 39.03072 -91.57086 36268 ft 350 kts 276°
2026-04-19 06:04 39.03998 -91.63221 36274 ft 351 kts 276°
2026-04-19 06:04 39.04923 -91.69387 36281 ft 352 kts 276°
2026-04-19 06:05 39.05850 -91.75573 36282 ft 353 kts 276°
2026-04-19 06:05 39.06774 -91.81760 36283 ft 353 kts 276°
2026-04-19 06:06 39.07698 -91.87979 36283 ft 354 kts 276°
2026-04-19 06:06 39.08625 -91.94234 36283 ft 355 kts 276°
2026-04-19 06:07 39.09547 -92.00491 36281 ft 356 kts 276°
2026-04-19 06:07 39.10466 -92.06748 36280 ft 357 kts 276°
2026-04-19 06:08 39.11552 -92.13022 36275 ft 360 kts 281°
2026-04-19 06:08 39.13276 -92.19103 36275 ft 365 kts 285°
2026-04-19 06:09 39.15134 -92.25222 36273 ft 366 kts 285°
2026-04-19 06:09 39.16990 -92.31321 36275 ft 367 kts 285°
2026-04-19 06:10 39.18846 -92.37440 36276 ft 368 kts 285°
2026-04-19 06:10 39.20709 -92.43603 36276 ft 369 kts 285°
2026-04-19 06:11 39.22567 -92.49757 36274 ft 370 kts 285°
2026-04-19 06:11 39.24426 -92.55932 36285 ft 370 kts 285°
2026-04-19 06:12 39.26264 -92.62026 35529 ft 357 kts 285°
2026-04-19 06:12 39.27151 -92.64993 34925 ft 351 kts 285°
2026-04-19 06:12 39.28028 -92.67923 34338 ft 346 kts 285°
2026-04-19 06:12 39.28884 -92.70783 33692 ft 340 kts 286°
2026-04-19 06:13 39.29733 -92.73624 33035 ft 335 kts 287°
2026-04-19 06:13 39.30572 -92.76431 32312 ft 332 kts 287°
2026-04-19 06:13 39.31386 -92.79170 31586 ft 328 kts 288°
2026-04-19 06:13 39.32205 -92.81908 30872 ft 325 kts 288°
2026-04-19 06:14 39.33012 -92.84620 30139 ft 320 kts 289°
2026-04-19 06:14 39.33807 -92.87294 29297 ft 316 kts 289°
2026-04-19 06:14 39.34592 -92.89932 28482 ft 313 kts 290°
2026-04-19 06:14 39.35359 -92.92527 27687 ft 310 kts 291°
2026-04-19 06:15 39.35871 -92.94246 27176 ft 308 kts 291°
2026-04-19 06:15 39.36886 -92.97675 26129 ft 306 kts 292°
2026-04-19 06:15 39.37402 -92.99408 25583 ft 306 kts 293°
2026-04-19 06:15 39.38152 -93.01954 24797 ft 305 kts 294°
2026-04-19 06:16 39.38914 -93.04526 24022 ft 305 kts 294°
2026-04-19 06:16 39.39665 -93.07072 23140 ft 305 kts 295°
2026-04-19 06:16 39.40423 -93.09638 22226 ft 304 kts 295°
2026-04-19 06:16 39.41182 -93.12210 21347 ft 304 kts 295°
2026-04-19 06:17 39.41924 -93.14736 20508 ft 304 kts 294°
2026-04-19 06:17 39.42680 -93.17297 19675 ft 303 kts 294°
2026-04-19 06:17 39.43423 -93.19838 18875 ft 296 kts 294°
2026-04-19 06:17 39.44139 -93.22275 18010 ft 290 kts 294°
2026-04-19 06:18 39.44851 -93.24699 17105 ft 285 kts 294°
2026-04-19 06:18 39.45553 -93.27093 16230 ft 282 kts 293°
2026-04-19 06:18 39.46241 -93.29437 15386 ft 279 kts 293°
2026-04-19 06:18 39.46926 -93.31789 14561 ft 278 kts 292°
2026-04-19 06:19 39.47511 -93.34180 13705 ft 279 kts 283°
2026-04-19 06:19 39.47704 -93.36665 12816 ft 281 kts 276°
2026-04-19 06:19 39.47654 -93.39218 12037 ft 282 kts 271°
2026-04-19 06:19 39.47521 -93.41677 11989 ft 265 kts 270°
2026-04-19 06:20 39.47363 -93.44054 11982 ft 271 kts 270°
2026-04-19 06:20 39.47201 -93.46533 11985 ft 279 kts 270°
2026-04-19 06:20 39.47039 -93.49046 11980 ft 285 kts 270°
2026-04-19 06:20 39.46870 -93.51644 11986 ft 290 kts 270°
2026-04-19 06:21 39.46707 -93.54230 11990 ft 293 kts 270°
2026-04-19 06:21 39.46541 -93.56878 11992 ft 296 kts 270°
2026-04-19 06:21 39.46373 -93.59568 11997 ft 298 kts 270°
2026-04-19 06:21 39.46211 -93.62237 11996 ft 300 kts 270°
2026-04-19 06:22 39.46044 -93.64888 11873 ft 289 kts 270°
2026-04-19 06:22 39.45874 -93.67374 11501 ft 263 kts 270°
2026-04-19 06:22 39.45710 -93.69615 11076 ft 244 kts 270°
2026-04-19 06:22 39.45542 -93.71756 10633 ft 232 kts 270°
2026-04-19 06:23 39.45383 -93.73798 10197 ft 223 kts 270°
2026-04-19 06:23 39.45224 -93.75752 9719 ft 216 kts 270°
2026-04-19 06:23 39.45078 -93.77679 9246 ft 211 kts 270°
2026-04-19 06:23 39.44946 -93.79548 8780 ft 208 kts 270°
2026-04-19 06:24 39.44831 -93.81392 8327 ft 205 kts 270°
2026-04-19 06:24 39.44727 -93.83229 7882 ft 203 kts 270°
2026-04-19 06:24 39.44641 -93.85057 7442 ft 202 kts 270°
2026-04-19 06:24 39.44571 -93.86860 7014 ft 202 kts 270°
2026-04-19 06:25 39.44514 -93.88676 6564 ft 201 kts 270°
2026-04-19 06:25 39.44471 -93.90496 6126 ft 201 kts 270°
2026-04-19 06:25 39.44438 -93.92291 5691 ft 201 kts 270°
2026-04-19 06:25 39.44412 -93.94128 5228 ft 206 kts 270°
2026-04-19 06:26 39.44392 -93.95985 4772 ft 211 kts 270°
2026-04-19 06:26 39.44377 -93.97902 4307 ft 215 kts 270°
2026-04-19 06:26 39.44366 -93.99849 3851 ft 218 kts 271°
2026-04-19 06:26 39.44360 -94.01830 3398 ft 221 kts 270°
2026-04-19 06:27 39.44354 -94.03833 2953 ft 223 kts 271°
2026-04-19 06:27 39.44353 -94.05778 2819 ft 212 kts 270°
2026-04-19 06:27 39.44356 -94.07637 2791 ft 200 kts 271°
2026-04-19 06:27 39.44356 -94.09394 2782 ft 189 kts 271°
2026-04-19 06:28 39.44356 -94.11050 2781 ft 185 kts 270°
2026-04-19 06:28 39.44357 -94.12777 2787 ft 198 kts 271°
2026-04-19 06:28 39.44357 -94.14617 2786 ft 209 kts 271°
2026-04-19 06:28 39.44362 -94.16519 2798 ft 217 kts 270°
2026-04-19 06:29 39.44367 -94.18500 2805 ft 223 kts 271°
2026-04-19 06:29 39.44372 -94.20532 2809 ft 227 kts 271°
2026-04-19 06:29 39.44376 -94.22547 2806 ft 214 kts 271°
2026-04-19 06:29 39.44374 -94.24353 2799 ft 192 kts 270°
2026-04-19 06:30 39.43948 -94.25866 2787 ft 180 kts 225°
2026-04-19 06:30 39.42923 -94.26676 2786 ft 168 kts 212°
2026-04-19 06:30 39.41913 -94.27365 2649 ft 164 kts 210°
2026-04-19 06:30 39.40920 -94.28026 2364 ft 155 kts 211°
2026-04-19 06:31 39.40001 -94.28640 2014 ft 142 kts 211°
2026-04-19 06:31 39.39192 -94.29192 1903 ft 121 kts 210°
2026-04-19 06:31 39.38489 -94.29672 1871 ft 112 kts 211°
2026-04-19 06:31 39.37737 -94.30059 1728 ft 122 kts 196°
2026-04-19 06:32 39.36889 -94.30315 1524 ft 128 kts 192°
2026-04-19 06:32 39.35989 -94.30498 1214 ft 136 kts 188°
2026-04-19 06:32 39.35082 -94.30665 1080 ft 127 kts 187°
2026-04-19 06:32 39.34279 -94.30798 880 ft 107 kts 188°
2026-04-19 06:33 39.33594 -94.30907 779 ft 88 kts 187°
2026-04-19 06:33 39.33152 -94.30981 779 ft 42 kts 187°
2026-04-19 06:33 39.32994 -94.30983 779 ft 13 kts 115°
2026-04-19 06:33 39.32966 -94.30872 779 ft 13 kts 165°
2026-04-19 06:34 39.32916 -94.30826 779 ft 11 kts 70°
2026-04-19 06:34 39.32955 -94.30812 779 ft 2 kts 291°
2026-04-19 06:34 39.32958 -94.30832 779 ft 3 kts 283°
2026-04-19 06:34 39.32959 -94.30837 779 ft 0 kts 283°